Coolangatta, Australia

2:14 AM AEST on August 23, 2017 (GMT +1000)
Coolangatta

Weather History for YBCG - March, 2013

Change the Weather History Date:

Tuesday, March 5, 2013

  Actual Average Record
Temperature  
Mean Temperature 74 °F -  
Max Temperature 80 °F - - ()
Min Temperature 69 °F - - ()
Cooling Degree Days 10    
Growing Degree Days 24 (Base 50)    
Moisture  
Dew Point 66 °F    
Average Humidity 74    
Maximum Humidity 94    
Minimum Humidity 46    
Precipitation  
Precipitation 0.01 in - - ()
Sea Level Pressure  
Sea Level Pressure 30.00 in    
Wind  
Wind Speed 15 mph ()    
Max Wind Speed 23 mph    
Max Gust Speed 33 mph    
Visibility 5.5 miles    
Events      
T = Trace of Precipitation, MM = Missing Value Source: Averaged Metar Reports

Daily Weather History Graph

Daily Weather History Graph

Search for Another Location

Airport or City:

Trip Planner

Search our weather history database for the weather conditions in past years. The results will help you decide how hot, cold, wet, or windy it might be!

Date:

Astronomy

Mar. 05, 2013 Rise Set
Actual Time 5:40 AM AEST 6:14 PM AEST
Civil Twilight 5:16 AM AEST 6:37 PM AEST
Nautical Twilight 4:48 AM AEST 7:05 PM AEST
Astronomical Twilight 4:20 AM AEST 7:33 PM AEST
Moon 11:40 PM AEST (3/5) 12:45 PM AEST (3/5)
Length of Visible Light 13h 20m
Length of Day
12h 33m
Waning Gibbous, 48% of the Moon is Illuminated
Mar 5
Waning Gibbous
Mar 12
New
Mar 20
First Quarter
Mar 27
Full
Apr 3
Last Quarter

Hourly Weather History & Observations

Time (AEST) Temp. Heat Index Dew Point Humidity Pressure Visibility Wind Dir Wind Speed Gust Speed Precip Events Conditions
12:00 AM 73 °F - 67 °F 77% 29.99 in - SE 15.0 mph - -   Overcast
12:00 AM 73.4 °F - 68.0 °F 83% 29.98 in 6.2 mi SE 15.0 mph - N/A   Overcast
12:21 AM 71.6 °F - 66.2 °F 83% 29.98 in 3.7 mi SE 17.3 mph 29.9 mph N/A   Overcast
12:30 AM 71.6 °F - 68.0 °F 88% 29.98 in - SE 17.3 mph 29.9 mph N/A   Overcast
1:00 AM 71.6 °F - 68.0 °F 88% 29.98 in 4.3 mi ESE 15.0 mph - N/A   Overcast
1:01 AM 71.6 °F - 69.8 °F 94% 29.98 in 4.3 mi ESE 15.0 mph - N/A   Overcast
1:05 AM 71.6 °F - 69.8 °F 94% 29.98 in 3.7 mi ESE 15.0 mph - N/A   Overcast
1:25 AM 71.6 °F - 69.8 °F 94% 29.98 in 6.2 mi SE 10.4 mph - N/A   Overcast
1:28 AM 71.6 °F - 69.8 °F 94% 29.98 in 3.7 mi SE 11.5 mph - N/A   Overcast
1:35 AM 71.6 °F - 68.0 °F 88% 29.98 in 1.5 mi ESE 17.3 mph 32.2 mph N/A   Overcast
2:00 AM 69.8 °F - 68.0 °F 94% 29.98 in 6.2 mi ESE 19.6 mph 31.1 mph N/A   Overcast
2:01 AM 71.6 °F - 68.0 °F 88% 29.98 in 6.2 mi ESE 19.6 mph 31.1 mph N/A   Overcast
2:21 AM 71.6 °F - 68.0 °F 88% 29.95 in 3.7 mi ESE 13.8 mph 27.6 mph N/A   Overcast
2:30 AM 71.6 °F - 68.0 °F 88% 29.95 in 4.3 mi ESE 16.1 mph - N/A   Overcast
2:39 AM 71.6 °F - 68.0 °F 88% 29.95 in 6.2 mi ESE 17.3 mph - N/A   Overcast
2:43 AM 71.6 °F - 68.0 °F 88% 29.95 in 6.2 mi ESE 18.4 mph 31.1 mph N/A   Mostly Cloudy
3:00 AM 72 °F - 67 °F 81% 29.96 in - ESE 15.0 mph - -   Overcast
3:00 AM 71.6 °F - 68.0 °F 88% 29.95 in 6.2 mi ESE 15.0 mph - N/A   Mostly Cloudy
3:16 AM 71.6 °F - 68.0 °F 88% 29.95 in 3.7 mi SSE 11.5 mph - N/A   Overcast
3:30 AM 69.8 °F - 66.2 °F 88% 29.95 in 3.1 mi SE 18.4 mph - N/A   Overcast
4:00 AM 71.6 °F - 68.0 °F 88% 29.95 in 6.2 mi SSE 12.7 mph - N/A   Overcast
4:01 AM 71.6 °F - 68.0 °F 88% 29.95 in 6.2 mi SSE 11.5 mph - N/A   Overcast
4:21 AM 71.6 °F - 68.0 °F 88% 29.95 in 3.7 mi SSE 9.2 mph 20.7 mph N/A   Overcast
4:30 AM 71.6 °F - 68.0 °F 88% 29.98 in 3.1 mi ESE 17.3 mph - N/A   Overcast
5:00 AM 73.4 °F - 68.0 °F 83% 29.98 in 6.2 mi SE 16.1 mph - N/A   Mostly Cloudy
5:30 AM 73.4 °F - 68.0 °F 83% 29.98 in 6.2 mi SE 12.7 mph - N/A   Mostly Cloudy
5:54 AM 71.6 °F - 66.2 °F 83% 29.98 in 5.6 mi ESE 17.3 mph 29.9 mph N/A   Mostly Cloudy
6:00 AM 71 °F - 67 °F 83% 30.00 in 4 mi ESE 18.4 mph - -   Overcast
6:00 AM 71.6 °F - 66.2 °F 83% 29.98 in 4.3 mi ESE 18.4 mph 29.9 mph N/A   Mostly Cloudy
6:30 AM 71.6 °F - 68.0 °F 88% 30.01 in 6.2 mi SE 13.8 mph - N/A   Overcast
7:00 AM 73.4 °F - 66.2 °F 78% 30.01 in 6.2 mi SE 17.3 mph - N/A   Overcast
7:30 AM 75.2 °F - 68.0 °F 78% 30.01 in 6.2 mi ESE 18.4 mph - N/A   Mostly Cloudy
7:52 AM 69.8 °F - 66.2 °F 88% 30.04 in 3.1 mi SE 20.7 mph - N/A   Overcast
8:00 AM 71.6 °F - 68.0 °F 88% 30.01 in 1.4 mi SE 18.4 mph - N/A   Overcast
8:17 AM 73.4 °F - 68.0 °F 83% 30.04 in 6.2 mi SSE 9.2 mph - N/A   Overcast
8:30 AM 75.2 °F - 66.2 °F 73% 30.04 in 6.2 mi SE 17.3 mph - N/A   Overcast
8:52 AM 77.0 °F - 64.4 °F 65% 30.04 in 6.2 mi ESE 21.9 mph 33.4 mph N/A   Overcast
9:00 AM 77 °F - 66 °F 60% 30.04 in - ESE 23.0 mph - -   Overcast
9:01 AM 77.0 °F - 66.2 °F 69% 30.04 in 6.2 mi ESE 21.9 mph 33.4 mph N/A   Mostly Cloudy
9:30 AM 75.2 °F - 64.4 °F 69% 30.04 in 6.2 mi ESE 18.4 mph - N/A   Mostly Cloudy
10:00 AM 78.8 °F - 64.4 °F 61% 30.04 in 6.2 mi ESE 20.7 mph - N/A   Overcast
10:30 AM 78.8 °F - 66.2 °F 65% 30.04 in 6.2 mi ESE 20.7 mph - N/A   Overcast
10:54 AM 80.6 °F 82.7 °F 66.2 °F 61% 30.04 in 6.2 mi ESE 19.6 mph 31.1 mph N/A   Overcast
11:00 AM 78.8 °F - 64.4 °F 61% 30.04 in 6.2 mi SE 19.6 mph - N/A   Overcast
11:30 AM 80.6 °F 82.3 °F 64.4 °F 58% 30.04 in 6.2 mi SE 20.7 mph - N/A   Overcast
12:00 PM 80 °F - 63 °F 46% 30.03 in - SE 20.7 mph - -  
12:00 PM 80.6 °F 81.8 °F 62.6 °F 54% 30.01 in 6.2 mi SE 20.7 mph - N/A   Overcast
12:30 PM 80.6 °F 81.8 °F 62.6 °F 54% 30.01 in 6.2 mi SE 19.6 mph - N/A   Overcast
1:00 PM 80.6 °F 81.8 °F 62.6 °F 54% 30.01 in 6.2 mi ESE 19.6 mph - N/A   Scattered Clouds
1:30 PM 80.6 °F 82.3 °F 64.4 °F 58% 30.01 in 6.2 mi SE 20.7 mph - N/A   Scattered Clouds
2:00 PM 78.8 °F - 66.2 °F 65% 29.98 in 6.2 mi SE 20.7 mph - N/A   Mostly Cloudy
2:30 PM 78.8 °F - 66.2 °F 65% 29.98 in 6.2 mi SE 20.7 mph - N/A   Mostly Cloudy
3:00 PM 77 °F - 65 °F 57% 29.99 in - ESE 18.4 mph - -   Overcast
3:00 PM 77.0 °F - 64.4 °F 65% 29.98 in 6.2 mi ESE 18.4 mph - N/A   Overcast
3:14 PM 77.0 °F - 64.4 °F 65% 29.98 in 6.2 mi ESE 17.3 mph 28.8 mph N/A   Mostly Cloudy
3:30 PM 78.8 °F - 64.4 °F 61% 29.98 in 6.2 mi SE 16.1 mph - N/A   Overcast
4:00 PM 77.0 °F - 64.4 °F 65% 29.98 in 6.2 mi SE 19.6 mph - N/A   Overcast
4:30 PM 77.0 °F - 64.4 °F 65% 29.98 in 6.2 mi SE 18.4 mph - N/A   Mostly Cloudy
5:00 PM 78.8 °F - 64.4 °F 61% 29.98 in 6.2 mi SE 16.1 mph - N/A   Mostly Cloudy
5:30 PM 77.0 °F - 62.6 °F 61% 30.01 in 6.2 mi SE 16.1 mph - N/A   Mostly Cloudy
6:00 PM 75 °F - 63 °F 57% 30.01 in - SE 15.0 mph - -  
6:00 PM 75.2 °F - 62.6 °F 65% 30.01 in 6.2 mi SE 15.0 mph - N/A   Mostly Cloudy
6:30 PM 75.2 °F - 62.6 °F 65% 30.01 in 6.2 mi SE 12.7 mph - N/A   Mostly Cloudy
7:00 PM 75.2 °F - 62.6 °F 65% 30.01 in 6.2 mi ESE 13.8 mph - N/A   Mostly Cloudy
7:30 PM 75.2 °F - 62.6 °F 65% 30.04 in 6.2 mi SE 15.0 mph - N/A   Scattered Clouds
8:00 PM 75.2 °F - 62.6 °F 65% 30.04 in 6.2 mi SE 15.0 mph - N/A   Mostly Cloudy
8:30 PM 75.2 °F - 62.6 °F 65% 30.04 in 6.2 mi SE 13.8 mph - N/A   Scattered Clouds
9:00 PM 74 °F - 63 °F 61% 30.05 in - SE 11.5 mph - -  
9:00 PM 73.4 °F - 62.6 °F 69% 30.04 in 6.2 mi SE 11.5 mph - N/A   Mostly Cloudy
9:30 PM 75.2 °F - 62.6 °F 65% 30.04 in 6.2 mi SE 12.7 mph - N/A   Overcast
10:00 PM 71.6 °F - 64.4 °F 78% 30.04 in 6.2 mi SE 16.1 mph - N/A   Overcast
10:30 PM 73.4 °F - 64.4 °F 73% 30.04 in 6.2 mi ESE 12.7 mph - N/A   Overcast
11:00 PM 73.4 °F - 60.8 °F 65% 30.04 in 6.2 mi ESE 15.0 mph - N/A   Mostly Cloudy
11:30 PM 73.4 °F - 60.8 °F 65% 30.04 in 6.2 mi SE 11.5 mph - N/A   Mostly Cloudy